EW9451 Weather Reports


Display with metric or nautical units.
time (UTC)temp
F
wind
direction
speed
MPH
gust
MPH
rain 1hr
in
rain 24hr
in
rain mn
in
humidity
%
barometer
mb
20260502224048 41 40 0.0 1.0 0.00 0.03 0.03 88 1006.0
20260502223547 41 40 0.0 3.0 0.00 0.03 0.03 88 1005.9
20260502223048 41 40 0.0 3.0 0.00 0.03 0.03 88 1006.0
20260502222548 41 36 0.0 2.0 0.00 0.03 0.03 87 1006.0
20260502222047 41 303 0.0 2.0 0.00 0.03 0.03 87 1005.9
20260502221548 41 303 0.0 3.0 0.00 0.03 0.03 86 1005.9
20260502221047 41 313 1.0 3.0 0.00 0.03 0.03 86 1005.9
20260502220548 41 350 0.0 5.0 0.00 0.03 0.03 85 1005.9
20260502220116 41 297 1.0 8.0 0.00 0.03 0.03 85 1005.8
20260502215546 41 306 3.0 11.0 0.00 0.03 0.03 83 1005.9
20260502215047 42 287 4.0 11.0 0.00 0.03 0.03 82 1005.8
20260502214546 42 317 2.0 7.0 0.00 0.03 0.03 83 1005.8
20260502214045 42 300 3.0 7.0 0.00 0.03 0.03 82 1005.7
20260502213545 42 15 2.0 5.0 0.00 0.03 0.03 82 1005.7
20260502213045 42 342 1.0 5.0 0.00 0.03 0.03 82 1005.7
20260502212545 42 5 1.0 9.0 0.00 0.03 0.03 82 1005.7
20260502212048 42 313 3.0 9.0 0.00 0.03 0.03 81 1005.8
20260502211545 43 355 3.0 9.0 0.00 0.03 0.03 80 1005.8
20260502211047 43 298 2.0 9.0 0.00 0.03 0.03 81 1005.7
20260502210544 44 311 4.0 9.0 0.00 0.03 0.03 80 1005.6
20260502210047 44 330 4.0 9.0 0.00 0.03 0.03 79 1005.6
20260502205543 45 298 4.0 9.0 0.00 0.03 0.03 77 1005.5
20260502205044 45 309 2.0 9.0 0.00 0.03 0.03 79 1005.4
20260502204555 45 267 3.0 9.0 0.00 0.03 0.03 78 1005.4
20260502204044 45 278 3.0 9.0 0.00 0.03 0.03 78 1005.4
20260502203544 45 319 2.0 9.0 0.00 0.03 0.03 79 1005.4
20260502203058 44 321 4.0 9.0 0.00 0.03 0.03 77 1005.3
20260502202545 45 336 3.0 8.0 0.00 0.03 0.03 76 1005.3
20260502202044 45 326 3.0 10.0 0.00 0.03 0.03 74 1005.3
20260502201545 45 282 3.0 10.0 0.00 0.03 0.03 74 1005.2
20260502201042 45 323 5.0 10.0 0.00 0.03 0.03 72 1005.3
20260502200543 46 315 3.0 10.0 0.00 0.03 0.03 72 1005.2
20260502200143 46 319 3.0 10.0 0.00 0.03 0.03 71 1005.2
20260502195541 46 277 4.0 10.0 0.00 0.03 0.03 71 1005.3
20260502195040 46 294 6.0 10.0 0.00 0.03 0.03 70 1005.2
20260502194547 46 296 4.0 10.0 0.00 0.03 0.03 71 1005.2
20260502194042 46 306 4.0 10.0 0.00 0.03 0.03 74 1005.2
20260502193540 46 331 3.0 11.0 0.00 0.03 0.03 74 1005.2
20260502193040 46 311 5.0 11.0 0.00 0.03 0.03 73 1005.2
20260502192541 46 324 3.0 11.0 0.00 0.03 0.03 73 1005.2
20260502192041 46 296 5.0 12.0 0.00 0.03 0.03 72 1005.2
20260502191542 47 335 6.0 13.0 0.00 0.03 0.03 73 1005.2
20260502191043 47 277 5.0 13.0 0.00 0.03 0.03 75 1005.1
20260502190540 47 254 6.0 13.0 0.00 0.03 0.03 72 1005.0
20260502190039 48 329 6.0 13.0 0.00 0.03 0.03 69 1005.0
20260502185539 48 292 6.0 11.0 0.00 0.03 0.03 69 1005.0
20260502185038 49 265 3.0 10.0 0.00 0.03 0.03 64 1004.9
20260502184541 49 281 4.0 10.0 0.00 0.03 0.03 63 1004.9
20260502184038 49 290 1.0 9.0 0.00 0.03 0.03 62 1004.9
20260502183538 49 294 2.0 9.0 0.00 0.03 0.03 62 1005.0
20260502183043 49 144 1.0 8.0 0.00 0.03 0.03 62 1005.0
20260502182538 50 261 2.0 8.0 0.00 0.03 0.03 60 1005.1
20260502182037 50 212 2.0 8.0 0.00 0.03 0.03 63 1005.0
20260502181537 49 324 2.0 8.0 0.00 0.03 0.03 67 1005.0
20260502181033 49 297 3.0 7.0 0.00 0.03 0.03 68 1005.2
20260502180533 48 131 2.0 5.0 0.00 0.03 0.03 70 1005.2
20260502164018 44 306 2.0 5.0 0.00 0.03 0.03 81 1005.6
20260502163517 44 325 2.0 7.0 0.00 0.03 0.03 80 1005.8
20260502163039 43 266 2.0 7.0 0.00 0.03 0.03 84 1005.8
20260502162517 43 333 2.0 4.0 0.00 0.03 0.03 84 1005.8
20260502162020 43 337 2.0 5.0 0.00 0.03 0.03 86 1005.9
20260502161515 42 325 2.0 6.0 0.00 0.03 0.03 84 1005.9
20260502161014 43 324 3.0 6.0 0.00 0.03 0.03 83 1005.9
20260502160517 43 314 2.0 3.0 0.00 0.03 0.03 85 1005.9
20260502152013 42 5 0.0 2.0 0.00 0.03 0.03 89 1006.1
20260502151512 42 308 0.0 4.0 0.00 0.03 0.03 88 1006.0
20260502151012 42 290 2.0 4.0 0.00 0.03 0.03 87 1006.0
20260502150511 42 304 1.0 3.0 0.00 0.03 0.03 88 1006.1
20260502130506 40 306 0.0 2.0 0.01 0.03 0.03 93 1006.2
20260502123505 39 328 0.0 2.0 0.01 0.02 0.02 92 1006.3
20260502123005 39 360 0.0 3.0 0.01 0.02 0.02 92 1006.4
20260502122504 39 298 1.0 3.0 0.01 0.02 0.02 92 1006.4
20260502122004 39 320 0.0 2.0 0.01 0.02 0.02 92 1006.3
20260502121503 39 324 1.0 3.0 0.01 0.02 0.02 93 1006.3
20260502121004 39 325 0.0 4.0 0.01 0.02 0.02 93 1006.3
20260502120504 39 338 1.0 4.0 0.01 0.02 0.02 92 1006.3
20260502115503 39 319 0.0 3.0 0.00 0.01 0.01 93 1006.4
20260502115003 39 321 1.0 3.0 0.00 0.01 0.01 92 1006.2
20260502114502 38 338 1.0 4.0 0.00 0.01 0.01 92 1006.3
20260502114002 38 331 1.0 4.0 0.00 0.01 0.01 92 1006.2
20260502113502 38 333 2.0 4.0 0.00 0.01 0.01 92 1006.2
20260502113002 38 321 1.0 3.0 0.00 0.01 0.01 92 1006.1
20260502112500 38 340 1.0 3.0 0.01 0.01 0.01 92 1006.1
20260502112100 38 355 1.0 3.0 0.01 0.01 0.01 91 1006.0
20260502111603 38 355 1.0 2.0 0.01 0.01 0.01 91 1006.0
20260502111100 38 325 1.0 3.0 0.01 0.01 0.01 92 1006.0
20260502110602 38 317 1.0 3.0 0.01 0.01 0.01 91 1005.9
20260502110104 38 317 1.0 3.0 0.01 0.01 0.01 91 1005.9
20260502105558 38 355 0.0 2.0 0.01 0.01 0.01 91 1005.9
20260502105059 38 355 0.0 2.0 0.01 0.01 0.01 92 1005.9
20260502104556 38 337 0.0 2.0 0.01 0.01 0.01 91 1005.9
20260502104055 38 337 0.0 3.0 0.01 0.01 0.01 92 1005.9
20260502103555 38 271 1.0 4.0 0.01 0.01 0.01 92 1005.9
20260502103054 38 323 1.0 4.0 0.01 0.01 0.01 92 1005.8
20260502102553 38 323 1.0 2.0 0.01 0.01 0.01 92 1005.7
20260502102054 38 323 1.0 2.0 0.00 0.00 0.00 92 1005.8
20260502101553 38 323 0.0 2.0 0.00 0.00 0.00 92 1005.8
20260502101055 38 338 0.0 1.0 0.00 0.00 0.00 92 1005.7
20260502100551 38 338 0.0 1.0 0.00 0.00 0.00 92 1005.9
20260502091044 39 107 0.0 0.0 0.00 0.00 0.00 90 1005.9
20260502090543 39 107 0.0 0.0 0.00 0.00 0.00 90 1005.9
20260502071531 42 146 0.0 2.0 0.00 0.00 0.00 76 1006.0
20260502071029 42 146 0.0 2.0 0.00 0.00 0.00 74 1005.9
20260502070530 42 146 0.0 2.0 0.00 0.00 0.00 75 1005.8
20260502070042 42 146 1.0 2.0 0.00 0.00 0.00 75 1005.9
20260502065528 42 162 0.0 2.0 0.00 0.00 0.00 73 1005.8
20260502065027 42 162 0.0 2.0 0.00 0.00 0.00 73 1005.8
20260502064537 42 183 0.0 2.0 0.00 0.00 0.00 67 1005.8
20260502064029 42 183 1.0 2.0 0.00 0.00 0.00 68 1005.8
20260502063524 42 300 0.0 1.0 0.00 0.00 0.00 66 1005.7
20260502063028 41 300 0.0 1.0 0.00 0.00 0.00 67 1005.8
20260502062522 41 300 0.0 3.0 0.00 0.00 0.00 68 1005.8
20260502062022 41 300 1.0 3.0 0.00 0.00 0.00 73 1005.9
20260502061522 41 130 0.0 2.0 0.00 0.00 0.00 73 1005.8
20260502061023 41 128 0.0 2.0 0.00 0.00 0.00 72 1005.8
20260502060520 41 128 1.0 3.0 0.00 0.00 0.00 72 1005.9
20260502060020 41 128 1.0 3.0 0.00 0.00 0.00 73 1005.8
20260502055519 41 5 1.0 2.0 0.00 0.00 0.00 68 1005.8
20260502055019 41 5 0.0 1.0 0.00 0.00 0.00 68 1005.9
20260502054519 41 5 0.0 2.0 0.00 0.00 0.00 67 1005.9
20260502054018 41 5 0.0 2.0 0.00 0.00 0.00 67 1005.9
20260502053518 41 5 0.0 0.0 0.00 0.00 0.00 66 1005.8
20260502053019 41 5 0.0 1.0 0.00 0.00 0.00 66 1005.8
20260502052517 41 5 0.0 1.0 0.00 0.00 0.00 67 1005.8
20260502052018 41 5 0.0 0.0 0.00 0.00 0.00 69 1005.8
20260502051519 41 5 0.0 1.0 0.00 0.00 0.00 66 1005.8
20260502051018 41 5 0.0 1.0 0.00 0.00 0.00 70 1005.8
20260502050517 41 5 0.0 1.0 0.00 0.00 0.00 67 1005.8
20260502050016 41 5 0.0 1.0 0.00 0.00 0.00 69 1005.8
20260502045518 41 5 0.0 0.0 0.00 0.00 0.00 67 1005.8
20260502045017 41 5 0.0 0.0 0.00 0.00 0.00 68 1005.8
20260502044514 41 5 0.0 0.0 0.00 0.00 0.00 69 1005.8
20260502044014 41 5 0.0 0.0 0.00 0.00 0.00 70 1005.8
20260502043515 41 5 0.0 0.0 0.00 0.00 0.00 68 1005.7
20260502043012 41 5 0.0 0.0 0.00 0.00 0.00 67 1005.7
20260502042511 41 5 0.0 0.0 0.00 0.00 0.00 67 1005.8
20260502042010 41 5 0.0 0.0 0.00 0.00 0.00 67 1005.8
20260502041510 41 5 0.0 0.0 0.00 0.00 0.00 66 1005.8
20260502041008 41 5 0.0 0.0 0.00 0.00 0.00 67 1005.8
20260502040507 40 5 0.0 0.0 0.00 0.01 0.00 67 1005.8
20260502040007 40 5 0.0 0.0 0.00 0.01 0.00 67 1005.8
20260502035510 40 5 0.0 0.0 0.00 0.01 0.00 69 1005.8
20260502035007 40 5 0.0 0.0 0.00 0.01 0.00 70 1005.8
20260502034507 40 5 0.0 0.0 0.00 0.01 0.00 70 1005.9
20260502034010 40 5 0.0 0.0 0.00 0.01 0.00 68 1005.9
20260502033506 40 5 0.0 0.0 0.00 0.01 0.00 67 1005.9
20260502033012 40 5 0.0 0.0 0.00 0.01 0.00 67 1005.9
20260502032507 40 5 0.0 0.0 0.00 0.01 0.00 66 1005.9
20260502032007 40 5 0.0 0.0 0.00 0.01 0.00 68 1005.9
20260502031506 40 5 0.0 1.0 0.00 0.01 0.00 68 1005.9
20260502031005 40 5 0.0 2.0 0.00 0.01 0.00 69 1005.8
20260502030505 40 5 1.0 2.0 0.00 0.01 0.00 68 1005.9
20260502030006 40 5 0.0 1.0 0.00 0.01 0.00 68 1006.0
20260502025505 40 5 0.0 2.0 0.00 0.01 0.00 68 1006.0
20260502025005 41 5 0.0 2.0 0.00 0.01 0.00 67 1005.9
20260502024511 41 5 0.0 1.0 0.00 0.01 0.00 66 1005.9
20260502024005 41 5 0.0 1.0 0.00 0.01 0.00 65 1005.9
20260502023505 41 5 0.0 1.0 0.00 0.01 0.00 64 1005.8
20260502023005 41 5 0.0 2.0 0.00 0.01 0.00 65 1005.9
20260502022505 42 5 0.0 2.0 0.00 0.01 0.00 66 1005.9
20260502022007 42 5 0.0 2.0 0.00 0.01 0.00 65 1005.9
20260502021504 43 5 0.0 1.0 0.00 0.01 0.00 65 1006.0
20260502021004 43 5 0.0 0.0 0.00 0.01 0.00 63 1006.0
20260502020506 43 5 0.0 0.0 0.00 0.01 0.00 61 1006.0
20260502020004 43 5 0.0 0.0 0.00 0.01 0.00 59 1006.0
20260502015506 44 5 0.0 0.0 0.00 0.01 0.00 59 1006.0
20260502015004 44 5 0.0 0.0 0.00 0.01 0.00 59 1006.1
20260502014512 44 5 0.0 0.0 0.00 0.01 0.00 58 1006.1
20260502014002 44 5 0.0 0.0 0.00 0.01 0.00 59 1006.1
20260502013502 45 5 0.0 0.0 0.00 0.01 0.00 57 1006.1
20260502013002 45 5 0.0 0.0 0.00 0.01 0.00 57 1006.1
20260502012502 45 5 0.0 1.0 0.00 0.01 0.00 56 1006.0
20260502012002 45 5 0.0 1.0 0.00 0.01 0.00 55 1006.0
20260502011502 45 5 0.0 0.0 0.00 0.01 0.00 55 1005.9
20260502011001 45 5 0.0 0.0 0.00 0.01 0.00 55 1005.8
20260502010501 45 5 0.0 0.0 0.00 0.01 0.00 54 1005.8
20260502010002 46 5 0.0 0.0 0.00 0.01 0.00 56 1005.8
20260502005100 46 5 0.0 0.0 0.00 0.01 0.00 54 1005.8
20260502004606 46 5 0.0 0.0 0.00 0.01 0.00 54 1005.8
20260502004059 46 5 0.0 0.0 0.00 0.01 0.00 54 1005.9
20260502003603 46 5 0.0 0.0 0.00 0.01 0.00 54 1005.8
20260502003059 46 5 0.0 0.0 0.00 0.01 0.00 53 1005.8
20260502002559 47 5 0.0 1.0 0.00 0.01 0.00 53 1005.7
20260502002059 47 5 0.0 1.0 0.00 0.01 0.00 52 1005.7
20260502001600 47 5 0.0 1.0 0.00 0.01 0.00 52 1005.7
20260502001101 47 5 0.0 1.0 0.00 0.01 0.00 53 1005.6
20260502000558 48 5 0.0 1.0 0.00 0.01 0.00 51 1005.5
20260502000111 48 5 0.0 1.0 0.00 0.01 0.00 52 1005.4
20260501235558 48 5 0.0 1.0 0.00 0.01 0.00 51 1005.4
20260501235057 48 5 0.0 1.0 0.00 0.01 0.00 51 1005.4
20260501234601 48 355 0.0 1.0 0.00 0.01 0.00 51 1005.3
20260501234059 48 355 0.0 1.0 0.00 0.01 0.00 51 1005.2
20260501233558 49 355 0.0 1.0 0.00 0.01 0.00 52 1005.2
20260501233101 49 355 0.0 2.0 0.00 0.01 0.00 51 1005.1
20260501232556 49 355 0.0 4.0 0.00 0.01 0.00 52 1005.1
20260501232056 49 360 0.0 4.0 0.00 0.01 0.00 51 1005.1
20260501231557 49 323 0.0 4.0 0.00 0.01 0.00 49 1005.0
20260501231056 50 333 2.0 4.0 0.00 0.01 0.00 47 1005.0
20260501230556 50 15 0.0 4.0 0.00 0.01 0.00 47 1004.9
20260501230056 51 5 0.0 4.0 0.00 0.03 0.00 49 1005.0
20260501225556 51 5 0.0 3.0 0.00 0.03 0.00 46 1004.9
20260501225057 52 27 1.0 3.0 0.00 0.03 0.00 43 1004.9
20260501224558 52 90 1.0 5.0 0.00 0.03 0.00 46 1004.9